WetterOnline ( https://www.wetteronline.at )

Wetter aktuell Bad Hall

Aktuelles Wetter: Linz Flughafen (313m)

6-stündlich | Neueste Meldungen
Ortszeit Temperatur Wetter
Fr, 20.05. 14:00 28.2° C leicht bewölkt
Fr, 20.05. 8:00 19.6° C leicht bewölkt
Fr, 20.05. 2:00 16.6° C leichte Gewitter
Do, 19.05. 20:00 24.2° C leicht bewölkt
Do, 19.05. 14:00 23.7° C fast wolkenlos
Do, 19.05. 8:00 13.5° C fast wolkenlos
Do, 19.05. 2:00 11.8° C -
Mi, 18.05. 20:00 19.3° C fast wolkenlos
Ortszeit Temperatur Wetter
Fr, 20.05. 19:00 28.8° C wolkenlos
Fr, 20.05. 18:00 29.6° C leicht bewölkt
Fr, 20.05. 17:00 29.8° C fast wolkenlos
Fr, 20.05. 16:00 29.7° C fast wolkenlos
Fr, 20.05. 15:00 29.2° C fast wolkenlos
Fr, 20.05. 14:00 28.2° C leicht bewölkt
Ortszeit Relative Feuchte Sichtweite
Fr, 20.05. 14:00 47% 45 km
Fr, 20.05. 8:00 76% 40 km
Fr, 20.05. 2:00 81% 30 km
Do, 19.05. 20:00 48% 55 km
Do, 19.05. 14:00 43% 55 km
Do, 19.05. 8:00 52% 35 km
Do, 19.05. 2:00 56% 60 km
Mi, 18.05. 20:00 38% 60 km
Ortszeit Relative Feuchte Sichtweite
Fr, 20.05. 19:00 44% 40 km
Fr, 20.05. 18:00 41% 45 km
Fr, 20.05. 17:00 40% 30 km
Fr, 20.05. 16:00 41% 40 km
Fr, 20.05. 15:00 45% 45 km
Fr, 20.05. 14:00 47% 45 km
Ortszeit Niederschlagsmenge Niederschlagsart
Fr, 20.05. 14:00 keine Meldung -
Fr, 20.05. 8:00 0.5 l/m2 in 12 Std. -
Fr, 20.05. 2:00 keine Meldung -
Do, 19.05. 20:00 keine Meldung -
Do, 19.05. 14:00 keine Meldung -
Do, 19.05. 8:00 keine Meldung -
Do, 19.05. 2:00 keine Meldung -
Mi, 18.05. 20:00 keine Meldung -
Ortszeit Niederschlagsmenge Niederschlagsart
Fr, 20.05. 19:00 0.0 l/m2 in 1 Std. -
Fr, 20.05. 18:00 0.0 l/m2 in 1 Std. -
Fr, 20.05. 17:00 0.0 l/m2 in 1 Std. -
Fr, 20.05. 16:00 0.0 l/m2 in 1 Std. -
Fr, 20.05. 15:00 0.0 l/m2 in 1 Std. -
Fr, 20.05. 14:00 0.0 l/m2 in 1 Std. -
Ortszeit Stärke Spitze Richtung
km/h Bft. km/h Grad Sektor
Fr, 20.05. 14:00 7 2 - - -
Fr, 20.05. 8:00 7 2 - - -
Fr, 20.05. 2:00 14 3 - 300° NW
Do, 19.05. 20:00 4 1 - - -
Do, 19.05. 14:00 11 2 - - -
Do, 19.05. 8:00 11 2 - - -
Do, 19.05. 2:00 7 2 - - -
Mi, 18.05. 20:00 14 3 - 110° O
Ortszeit Stärke Spitze Richtung
km/h Bft. km/h Grad Sektor
Fr, 20.05. 19:00 7 2 - - -
Fr, 20.05. 18:00 7 2 - - -
Fr, 20.05. 17:00 7 2 - - -
Fr, 20.05. 16:00 4 1 - - -
Fr, 20.05. 15:00 4 1 - - -
Fr, 20.05. 14:00 7 2 - - -
Ortszeit Untergrenze Bedeckung Gattung
total tief tief mittel hoch
Fr, 20.05. 14:00 1800 m 3/8 1/8 Cu - Ci
Fr, 20.05. 8:00 3300 m 2/8 1/8 - Ac -
Fr, 20.05. 2:00 3000 m 4/8 3/8 - - -
Do, 19.05. 20:00 9000 m 5/8 0/8 - - -
Do, 19.05. 14:00 9000 m 1/8 0/8 - - -
Do, 19.05. 8:00 9000 m 2/8 0/8 - - -
Do, 19.05. 2:00 - - - - - -
Mi, 18.05. 20:00 - 1/8 - - - -
Ortszeit Bedeckungsgrad in Achtel und Wolkenuntergrenze
Fr, 20.05. 19:00 keine Wolken
Fr, 20.05. 18:00 1(3900m)
Fr, 20.05. 17:00 1(1800m)
Fr, 20.05. 16:00 1(1800m)
Fr, 20.05. 15:00 1(1800m)
Fr, 20.05. 14:00 1(1800m) 3(9000m)
Ortszeit Luftdruck NN (hPa) Tendenz (hPa in 3 Std.)
Fr, 20.05. 14:00 1020 - 2,0
Fr, 20.05. 8:00 1023 + 0,5
Fr, 20.05. 2:00 1023 + 1,6
Do, 19.05. 20:00 1020 - 0,7
Do, 19.05. 14:00 1022 - 1,2
Do, 19.05. 8:00 1025 + 0,2
Do, 19.05. 2:00 1026 - 0,7
Mi, 18.05. 20:00 1024 - 0,3
Ortszeit Luftdruck NN (hPa) Tendenz (hPa in 3 Std.)
Fr, 20.05. 19:00 1014 - 3,1
Fr, 20.05. 18:00 1015 - 3,0
Fr, 20.05. 17:00 1016 - 2,7
Fr, 20.05. 16:00 1018 - 2,5
Fr, 20.05. 15:00 1019 - 2,3
Fr, 20.05. 14:00 1020 - 2,0
Ortszeit Schneehöhe (cm)
Fr, 20.05. 14:00 -
Fr, 20.05. 8:00 -
Fr, 20.05. 2:00 -
Do, 19.05. 20:00 -
Do, 19.05. 14:00 -
Do, 19.05. 8:00 -
Do, 19.05. 2:00 -
Mi, 18.05. 20:00 -
Ortszeit Schneehöhe (cm)
Fr, 20.05. 19:00 -
Fr, 20.05. 18:00 -
Fr, 20.05. 17:00 -
Fr, 20.05. 16:00 -
Fr, 20.05. 15:00 -
Fr, 20.05. 14:00 -
Link zu dieser Seite / Seite empfehlen

Das Wetter in ...